| time (UTC) | temp F | wind direction | speed MPH | gust MPH | rain 1hr in | rain 24hr in | rain mn in | humidity % | barometer mb |
| 20260502230509 | 58 | 266 | 4.0 | 15.0 | 0.00 | 0.00 | 0.00 | 32 | 1014.7 |
| 20260502230004 | 58 | 256 | 7.0 | 16.0 | 0.00 | 0.00 | 0.00 | 32 | 1014.7 |
| 20260502225502 | 57 | 256 | 10.0 | 15.0 | 0.00 | 0.00 | 0.00 | 33 | 1014.7 |
| 20260502225007 | 57 | 274 | 6.0 | 13.0 | 0.00 | 0.00 | 0.00 | 32 | 1014.8 |
| 20260502224507 | 56 | 250 | 7.0 | 13.0 | 0.00 | 0.00 | 0.00 | 33 | 1014.9 |
| 20260502224002 | 57 | 267 | 9.0 | 13.0 | 0.00 | 0.00 | 0.00 | 32 | 1014.9 |
| 20260502223506 | 57 | 243 | 5.0 | 10.0 | 0.00 | 0.00 | 0.00 | 32 | 1015.0 |
| 20260502223005 | 57 | 314 | 5.0 | 14.0 | 0.00 | 0.00 | 0.00 | 33 | 1015.0 |
| 20260502222502 | 57 | 236 | 6.0 | 14.0 | 0.00 | 0.00 | 0.00 | 32 | 1015.1 |
| 20260502222005 | 57 | 262 | 6.0 | 16.0 | 0.00 | 0.00 | 0.00 | 33 | 1015.1 |
| 20260502221508 | 57 | 207 | 9.0 | 16.0 | 0.00 | 0.00 | 0.00 | 32 | 1015.1 |
| 20260502221009 | 57 | 296 | 6.0 | 14.0 | 0.00 | 0.00 | 0.00 | 34 | 1015.2 |
| 20260502220513 | 56 | 233 | 7.0 | 12.0 | 0.00 | 0.00 | 0.00 | 33 | 1015.2 |
| 20260502220005 | 56 | 247 | 6.0 | 13.0 | 0.00 | 0.00 | 0.00 | 33 | 1015.2 |
| 20260502215505 | 57 | 285 | 5.0 | 13.0 | 0.00 | 0.00 | 0.00 | 31 | 1015.3 |
| 20260502215009 | 58 | 237 | 5.0 | 19.0 | 0.00 | 0.00 | 0.00 | 31 | 1015.3 |
| 20260502214506 | 58 | 240 | 7.0 | 19.0 | 0.00 | 0.00 | 0.00 | 31 | 1015.3 |
| 20260502214005 | 58 | 267 | 6.0 | 15.0 | 0.00 | 0.00 | 0.00 | 32 | 1015.3 |
| 20260502213513 | 59 | 111 | 9.0 | 15.0 | 0.00 | 0.00 | 0.00 | 32 | 1015.3 |
| 20260502213009 | 58 | 51 | 5.0 | 11.0 | 0.00 | 0.00 | 0.00 | 31 | 1015.3 |
| 20260502212508 | 58 | 26 | 3.0 | 13.0 | 0.00 | 0.00 | 0.00 | 31 | 1015.5 |
| 20260502212009 | 57 | 240 | 7.0 | 13.0 | 0.00 | 0.00 | 0.00 | 32 | 1015.5 |
| 20260502211520 | 57 | 233 | 7.0 | 11.0 | 0.00 | 0.00 | 0.00 | 33 | 1015.5 |
| 20260502211007 | 57 | 325 | 4.0 | 8.0 | 0.00 | 0.00 | 0.00 | 34 | 1015.5 |
| 20260502210502 | 56 | 273 | 7.0 | 9.0 | 0.00 | 0.00 | 0.00 | 33 | 1015.5 |
| 20260502210011 | 55 | 271 | 1.0 | 9.0 | 0.00 | 0.00 | 0.00 | 33 | 1015.7 |
| 20260502205510 | 55 | 344 | 4.0 | 9.0 | 0.00 | 0.00 | 0.00 | 34 | 1015.7 |
| 20260502205002 | 56 | 282 | 4.0 | 9.0 | 0.00 | 0.00 | 0.00 | 34 | 1015.8 |
| 20260502204514 | 55 | 269 | 0.0 | 4.0 | 0.00 | 0.00 | 0.00 | 34 | 1015.8 |
| 20260502204006 | 55 | 350 | 1.0 | 4.0 | 0.00 | 0.00 | 0.00 | 34 | 1015.9 |
| 20260502203509 | 55 | 5 | 1.0 | 7.0 | 0.00 | 0.00 | 0.00 | 34 | 1016.0 |
| 20260502203013 | 55 | 5 | 2.0 | 7.0 | 0.00 | 0.00 | 0.00 | 33 | 1016.0 |
| 20260502202506 | 55 | 209 | 1.0 | 13.0 | 0.00 | 0.00 | 0.00 | 33 | 1016.0 |
| 20260502202003 | 56 | 315 | 7.0 | 15.0 | 0.00 | 0.00 | 0.00 | 32 | 1016.2 |
| 20260502201513 | 57 | 334 | 6.0 | 15.0 | 0.00 | 0.00 | 0.00 | 33 | 1016.3 |
| 20260502201006 | 55 | 167 | 5.0 | 10.0 | 0.00 | 0.00 | 0.00 | 33 | 1016.3 |
| 20260502200503 | 54 | 267 | 1.0 | 10.0 | 0.00 | 0.00 | 0.00 | 34 | 1016.4 |
| 20260502200016 | 55 | 264 | 7.0 | 12.0 | 0.00 | 0.00 | 0.00 | 34 | 1016.4 |
| 20260502195505 | 55 | 346 | 4.0 | 14.0 | 0.00 | 0.00 | 0.00 | 32 | 1016.5 |
| 20260502195005 | 57 | 233 | 2.0 | 14.0 | 0.00 | 0.00 | 0.00 | 32 | 1016.5 |
| 20260502194516 | 57 | 296 | 6.0 | 14.0 | 0.00 | 0.00 | 0.00 | 32 | 1016.6 |
| 20260502194008 | 56 | 230 | 6.0 | 14.0 | 0.00 | 0.00 | 0.00 | 32 | 1016.7 |
| 20260502193505 | 56 | 248 | 4.0 | 12.0 | 0.00 | 0.00 | 0.00 | 32 | 1016.8 |
| 20260502193023 | 56 | 11 | 3.0 | 15.0 | 0.00 | 0.00 | 0.00 | 32 | 1016.9 |
| 20260502192508 | 55 | 302 | 7.0 | 17.0 | 0.00 | 0.00 | 0.00 | 32 | 1017.0 |
| 20260502192003 | 55 | 339 | 11.0 | 17.0 | 0.00 | 0.00 | 0.00 | 31 | 1017.2 |
| 20260502191523 | 56 | 180 | 1.0 | 15.0 | 0.00 | 0.00 | 0.00 | 33 | 1017.1 |
| 20260502191007 | 55 | 267 | 6.0 | 15.0 | 0.00 | 0.00 | 0.00 | 32 | 1017.2 |
| 20260502190503 | 54 | 51 | 4.0 | 10.0 | 0.00 | 0.00 | 0.00 | 34 | 1017.1 |
| 20260502190022 | 55 | 275 | 3.0 | 9.0 | 0.00 | 0.00 | 0.00 | 34 | 1017.4 |
| 20260502185512 | 55 | 217 | 2.0 | 13.0 | 0.00 | 0.00 | 0.00 | 34 | 1017.4 |
| 20260502185003 | 54 | 5 | 4.0 | 13.0 | 0.00 | 0.00 | 0.00 | 34 | 1017.5 |
| 20260502184533 | 54 | 244 | 1.0 | 9.0 | 0.00 | 0.00 | 0.00 | 35 | 1017.5 |
| 20260502184009 | 54 | 46 | 3.0 | 15.0 | 0.00 | 0.00 | 0.00 | 33 | 1017.7 |
| 20260502183506 | 55 | 186 | 4.0 | 15.0 | 0.00 | 0.00 | 0.00 | 34 | 1017.6 |
| 20260502183023 | 55 | 217 | 6.0 | 12.0 | 0.00 | 0.00 | 0.00 | 34 | 1017.9 |
| 20260502182509 | 54 | 291 | 5.0 | 12.0 | 0.00 | 0.00 | 0.00 | 33 | 1017.8 |
| 20260502182006 | 53 | 336 | 3.0 | 12.0 | 0.00 | 0.00 | 0.00 | 36 | 1017.9 |
| 20260502181529 | 53 | 261 | 6.0 | 11.0 | 0.00 | 0.00 | 0.00 | 33 | 1017.9 |
| 20260502181007 | 54 | 272 | 3.0 | 16.0 | 0.00 | 0.00 | 0.00 | 33 | 1017.9 |
| 20260502180504 | 55 | 310 | 9.0 | 16.0 | 0.00 | 0.00 | 0.00 | 32 | 1018.1 |
| 20260502170509 | 53 | 264 | 3.0 | 12.0 | 0.00 | 0.00 | 0.00 | 36 | 1018.6 |
| 20260502164010 | 52 | 21 | 1.0 | 11.0 | 0.00 | 0.00 | 0.00 | 37 | 1018.9 |
| 20260502163512 | 52 | 80 | 3.0 | 11.0 | 0.00 | 0.00 | 0.00 | 37 | 1018.9 |
| 20260502163034 | 52 | 49 | 2.0 | 7.0 | 0.00 | 0.00 | 0.00 | 36 | 1018.8 |
| 20260502162507 | 52 | 97 | 2.0 | 12.0 | 0.00 | 0.00 | 0.00 | 38 | 1019.1 |
| 20260502162009 | 51 | 153 | 4.0 | 12.0 | 0.00 | 0.00 | 0.00 | 41 | 1019.0 |
| 20260502161529 | 51 | 38 | 3.0 | 10.0 | 0.00 | 0.00 | 0.00 | 40 | 1019.1 |
| 20260502161007 | 50 | 340 | 2.0 | 11.0 | 0.00 | 0.00 | 0.00 | 38 | 1019.1 |
| 20260502160513 | 51 | 236 | 6.0 | 11.0 | 0.00 | 0.00 | 0.00 | 38 | 1019.1 |
| 20260502152014 | 48 | 114 | 3.0 | 13.0 | 0.00 | 0.00 | 0.00 | 43 | 1019.3 |
| 20260502151529 | 49 | 352 | 3.0 | 13.0 | 0.00 | 0.00 | 0.00 | 43 | 1019.4 |
| 20260502151011 | 49 | 219 | 4.0 | 11.0 | 0.00 | 0.00 | 0.00 | 46 | 1019.4 |
| 20260502150511 | 48 | 244 | 3.0 | 12.0 | 0.00 | 0.00 | 0.00 | 46 | 1019.4 |
| 20260502130502 | 41 | 196 | 3.0 | 5.0 | 0.00 | 0.00 | 0.00 | 71 | 1019.8 |
| 20260502123505 | 38 | 208 | 1.0 | 2.0 | 0.00 | 0.00 | 0.00 | 82 | 1019.9 |
| 20260502123005 | 37 | 228 | 1.0 | 2.0 | 0.00 | 0.00 | 0.00 | 82 | 1019.9 |
| 20260502122503 | 37 | 228 | 0.0 | 2.0 | 0.00 | 0.00 | 0.00 | 83 | 1019.9 |
| 20260502122002 | 36 | 228 | 0.0 | 2.0 | 0.00 | 0.00 | 0.00 | 84 | 1019.8 |
| 20260502121507 | 35 | 228 | 0.0 | 2.0 | 0.00 | 0.00 | 0.00 | 85 | 1019.8 |
| 20260502121004 | 34 | 228 | 0.0 | 2.0 | 0.00 | 0.00 | 0.00 | 86 | 1019.8 |
| 20260502120502 | 33 | 228 | 0.0 | 2.0 | 0.00 | 0.00 | 0.00 | 87 | 1019.8 |
| 20260502115504 | 32 | 228 | 0.0 | 2.0 | 0.00 | 0.00 | 0.00 | 88 | 1019.9 |
| 20260502115003 | 32 | 228 | 0.0 | 2.0 | 0.00 | 0.00 | 0.00 | 88 | 1019.8 |
| 20260502114503 | 31 | 228 | 0.0 | 2.0 | 0.00 | 0.00 | 0.00 | 88 | 1019.8 |
| 20260502114004 | 31 | 228 | 0.0 | 2.0 | 0.00 | 0.00 | 0.00 | 89 | 1019.8 |
| 20260502113506 | 31 | 228 | 0.0 | 2.0 | 0.00 | 0.00 | 0.00 | 89 | 1019.7 |
| 20260502113013 | 30 | 228 | 0.0 | 2.0 | 0.00 | 0.00 | 0.00 | 90 | 1019.6 |
| 20260502112503 | 30 | 228 | 0.0 | 2.0 | 0.00 | 0.00 | 0.00 | 90 | 1019.6 |
| 20260502112003 | 30 | 228 | 0.0 | 2.0 | 0.00 | 0.00 | 0.00 | 90 | 1019.6 |
| 20260502111507 | 30 | 228 | 0.0 | 1.0 | 0.00 | 0.00 | 0.00 | 90 | 1019.5 |
| 20260502111003 | 29 | 228 | 0.0 | 1.0 | 0.00 | 0.00 | 0.00 | 90 | 1019.4 |
| 20260502110502 | 29 | 228 | 0.0 | 1.0 | 0.00 | 0.00 | 0.00 | 90 | 1019.4 |
| 20260502110010 | 29 | 228 | 0.0 | 2.0 | 0.00 | 0.00 | 0.00 | 90 | 1019.4 |
| 20260502105503 | 29 | 228 | 0.0 | 2.0 | 0.00 | 0.00 | 0.00 | 90 | 1019.4 |
| 20260502105003 | 29 | 228 | 0.0 | 2.0 | 0.00 | 0.00 | 0.00 | 90 | 1019.4 |
| 20260502104534 | 29 | 228 | 0.0 | 2.0 | 0.00 | 0.00 | 0.00 | 90 | 1019.4 |
| 20260502104003 | 29 | 228 | 0.0 | 2.0 | 0.00 | 0.00 | 0.00 | 90 | 1019.5 |
| 20260502103503 | 29 | 228 | 0.0 | 2.0 | 0.00 | 0.00 | 0.00 | 90 | 1019.4 |
| 20260502103010 | 29 | 228 | 0.0 | 2.0 | 0.00 | 0.00 | 0.00 | 90 | 1019.5 |
| 20260502102502 | 29 | 228 | 1.0 | 1.0 | 0.00 | 0.00 | 0.00 | 90 | 1019.5 |
| 20260502102003 | 29 | 228 | 0.0 | 1.0 | 0.00 | 0.00 | 0.00 | 90 | 1019.5 |
| 20260502101510 | 29 | 228 | 0.0 | 1.0 | 0.00 | 0.00 | 0.00 | 90 | 1019.5 |
| 20260502101003 | 29 | 228 | 0.0 | 2.0 | 0.00 | 0.00 | 0.00 | 90 | 1019.4 |
| 20260502100503 | 29 | 228 | 0.0 | 2.0 | 0.00 | 0.00 | 0.00 | 90 | 1019.3 |
| 20260502091520 | 30 | 228 | 0.0 | 2.0 | 0.00 | 0.00 | 0.00 | 90 | 1019.3 |
| 20260502091004 | 30 | 228 | 0.0 | 2.0 | 0.00 | 0.00 | 0.00 | 90 | 1019.3 |
| 20260502090504 | 30 | 228 | 1.0 | 2.0 | 0.00 | 0.00 | 0.00 | 90 | 1019.4 |
| 20260502071004 | 31 | 221 | 0.0 | 2.0 | 0.00 | 0.00 | 0.00 | 88 | 1019.3 |
| 20260502070505 | 31 | 221 | 0.0 | 2.0 | 0.00 | 0.00 | 0.00 | 88 | 1019.3 |
| 20260502070022 | 31 | 221 | 0.0 | 2.0 | 0.00 | 0.00 | 0.00 | 88 | 1019.3 |
| 20260502065504 | 31 | 221 | 1.0 | 2.0 | 0.00 | 0.00 | 0.00 | 87 | 1019.4 |
| 20260502065007 | 31 | 221 | 0.0 | 2.0 | 0.00 | 0.00 | 0.00 | 87 | 1019.4 |
| 20260502064521 | 31 | 221 | 0.0 | 2.0 | 0.00 | 0.00 | 0.00 | 87 | 1019.4 |
| 20260502064003 | 32 | 221 | 0.0 | 2.0 | 0.00 | 0.00 | 0.00 | 87 | 1019.4 |
| 20260502063506 | 32 | 221 | 0.0 | 2.0 | 0.00 | 0.00 | 0.00 | 88 | 1019.3 |
| 20260502063019 | 32 | 221 | 1.0 | 2.0 | 0.00 | 0.00 | 0.00 | 87 | 1019.3 |
| 20260502062503 | 32 | 221 | 1.0 | 2.0 | 0.00 | 0.00 | 0.00 | 87 | 1019.4 |
| 20260502062006 | 32 | 221 | 1.0 | 2.0 | 0.00 | 0.00 | 0.00 | 87 | 1019.4 |
| 20260502061520 | 32 | 221 | 1.0 | 1.0 | 0.00 | 0.00 | 0.00 | 87 | 1019.5 |
| 20260502061003 | 32 | 221 | 0.0 | 2.0 | 0.00 | 0.00 | 0.00 | 87 | 1019.5 |
| 20260502060507 | 32 | 221 | 0.0 | 2.0 | 0.00 | 0.00 | 0.00 | 87 | 1019.5 |
| 20260502060022 | 32 | 221 | 0.0 | 2.0 | 0.00 | 0.00 | 0.00 | 87 | 1019.5 |
| 20260502055503 | 32 | 221 | 0.0 | 2.0 | 0.00 | 0.00 | 0.00 | 86 | 1019.5 |
| 20260502055010 | 32 | 221 | 0.0 | 2.0 | 0.00 | 0.00 | 0.00 | 86 | 1019.6 |
| 20260502054521 | 32 | 221 | 0.0 | 2.0 | 0.00 | 0.00 | 0.00 | 86 | 1019.5 |
| 20260502054004 | 32 | 221 | 0.0 | 2.0 | 0.00 | 0.00 | 0.00 | 86 | 1019.6 |
| 20260502053508 | 32 | 221 | 0.0 | 2.0 | 0.00 | 0.00 | 0.00 | 86 | 1019.5 |
| 20260502053022 | 32 | 221 | 0.0 | 2.0 | 0.00 | 0.00 | 0.00 | 86 | 1019.5 |
| 20260502052506 | 32 | 221 | 0.0 | 2.0 | 0.00 | 0.00 | 0.00 | 86 | 1019.5 |
| 20260502052006 | 33 | 221 | 0.0 | 2.0 | 0.00 | 0.00 | 0.00 | 85 | 1019.5 |
| 20260502051536 | 33 | 221 | 0.0 | 2.0 | 0.00 | 0.00 | 0.00 | 85 | 1019.5 |
| 20260502051008 | 33 | 221 | 1.0 | 2.0 | 0.00 | 0.01 | 0.00 | 84 | 1019.4 |
| 20260502050506 | 33 | 221 | 0.0 | 2.0 | 0.00 | 0.01 | 0.00 | 84 | 1019.4 |
| 20260502050024 | 33 | 221 | 0.0 | 2.0 | 0.00 | 0.01 | 0.00 | 84 | 1019.4 |
| 20260502045504 | 33 | 221 | 0.0 | 2.0 | 0.00 | 0.01 | 0.01 | 83 | 1019.5 |
| 20260502045008 | 33 | 221 | 0.0 | 2.0 | 0.00 | 0.01 | 0.01 | 83 | 1019.5 |
| 20260502044524 | 34 | 221 | 0.0 | 2.0 | 0.00 | 0.01 | 0.01 | 83 | 1019.5 |
| 20260502044005 | 34 | 221 | 0.0 | 2.0 | 0.00 | 0.01 | 0.01 | 83 | 1019.5 |
| 20260502043507 | 34 | 221 | 0.0 | 2.0 | 0.00 | 0.01 | 0.01 | 83 | 1019.5 |
| 20260502043024 | 34 | 221 | 0.0 | 2.0 | 0.00 | 0.01 | 0.01 | 82 | 1019.5 |
| 20260502042505 | 34 | 221 | 0.0 | 2.0 | 0.00 | 0.01 | 0.01 | 81 | 1019.5 |
| 20260502042010 | 34 | 221 | 0.0 | 2.0 | 0.00 | 0.01 | 0.01 | 81 | 1019.4 |
| 20260502041526 | 34 | 221 | 0.0 | 2.0 | 0.00 | 0.01 | 0.01 | 81 | 1019.4 |
| 20260502041005 | 34 | 221 | 0.0 | 2.0 | 0.00 | 0.01 | 0.01 | 81 | 1019.3 |
| 20260502040509 | 34 | 221 | 0.0 | 2.0 | 0.00 | 0.02 | 0.01 | 80 | 1019.3 |
| 20260502040026 | 35 | 221 | 0.0 | 2.0 | 0.00 | 0.02 | 0.01 | 80 | 1019.3 |
| 20260502035505 | 35 | 221 | 0.0 | 2.0 | 0.00 | 0.02 | 0.01 | 79 | 1019.3 |
| 20260502035010 | 35 | 221 | 0.0 | 2.0 | 0.00 | 0.02 | 0.01 | 79 | 1019.4 |
| 20260502034537 | 35 | 221 | 0.0 | 2.0 | 0.00 | 0.03 | 0.01 | 78 | 1019.4 |
| 20260502034007 | 35 | 221 | 0.0 | 2.0 | 0.00 | 0.03 | 0.01 | 79 | 1019.3 |
| 20260502033509 | 35 | 221 | 0.0 | 2.0 | 0.00 | 0.03 | 0.01 | 78 | 1019.3 |
| 20260502033030 | 36 | 221 | 0.0 | 2.0 | 0.00 | 0.03 | 0.01 | 77 | 1019.3 |
| 20260502032506 | 36 | 221 | 0.0 | 2.0 | 0.00 | 0.04 | 0.01 | 77 | 1019.2 |
| 20260502032011 | 36 | 221 | 1.0 | 2.0 | 0.00 | 0.04 | 0.01 | 76 | 1019.3 |
| 20260502031525 | 36 | 221 | 0.0 | 2.0 | 0.00 | 0.04 | 0.01 | 76 | 1019.3 |
| 20260502031009 | 36 | 221 | 0.0 | 2.0 | 0.00 | 0.04 | 0.01 | 76 | 1019.3 |
| 20260502030510 | 36 | 221 | 0.0 | 2.0 | 0.00 | 0.04 | 0.01 | 75 | 1019.2 |
| 20260502030020 | 36 | 221 | 1.0 | 2.0 | 0.00 | 0.04 | 0.01 | 74 | 1019.1 |
| 20260502025506 | 37 | 221 | 1.0 | 2.0 | 0.00 | 0.04 | 0.01 | 73 | 1019.2 |
| 20260502025010 | 37 | 101 | 0.0 | 2.0 | 0.00 | 0.04 | 0.01 | 71 | 1019.2 |
| 20260502024520 | 38 | 96 | 0.0 | 2.0 | 0.00 | 0.04 | 0.01 | 70 | 1019.2 |
| 20260502024010 | 38 | 96 | 0.0 | 2.0 | 0.00 | 0.04 | 0.01 | 69 | 1019.2 |
| 20260502023512 | 38 | 96 | 0.0 | 2.0 | 0.00 | 0.04 | 0.01 | 67 | 1019.1 |
| 20260502023027 | 38 | 96 | 0.0 | 2.0 | 0.00 | 0.04 | 0.01 | 67 | 1019.2 |
| 20260502022506 | 38 | 96 | 0.0 | 2.0 | 0.00 | 0.04 | 0.01 | 66 | 1019.2 |
| 20260502022009 | 38 | 96 | 0.0 | 2.0 | 0.00 | 0.04 | 0.01 | 67 | 1019.2 |
| 20260502021523 | 39 | 96 | 0.0 | 2.0 | 0.00 | 0.04 | 0.01 | 67 | 1019.1 |
| 20260502021006 | 38 | 96 | 0.0 | 2.0 | 0.00 | 0.04 | 0.01 | 67 | 1019.2 |
| 20260502020511 | 38 | 96 | 0.0 | 2.0 | 0.00 | 0.04 | 0.01 | 67 | 1019.1 |
| 20260502020023 | 39 | 96 | 0.0 | 2.0 | 0.00 | 0.04 | 0.01 | 67 | 1019.0 |
| 20260502015509 | 39 | 96 | 0.0 | 1.0 | 0.00 | 0.04 | 0.01 | 66 | 1018.9 |
| 20260502015012 | 39 | 96 | 0.0 | 2.0 | 0.00 | 0.04 | 0.01 | 66 | 1018.9 |
| 20260502014526 | 39 | 96 | 0.0 | 2.0 | 0.00 | 0.04 | 0.01 | 65 | 1018.9 |
| 20260502014013 | 39 | 96 | 1.0 | 2.0 | 0.00 | 0.04 | 0.01 | 64 | 1018.9 |
| 20260502013508 | 39 | 94 | 1.0 | 3.0 | 0.00 | 0.04 | 0.01 | 63 | 1018.8 |
| 20260502013024 | 40 | 101 | 1.0 | 3.0 | 0.00 | 0.04 | 0.01 | 64 | 1018.8 |
| 20260502012510 | 40 | 92 | 1.0 | 6.0 | 0.00 | 0.04 | 0.01 | 63 | 1018.7 |
| 20260502012014 | 40 | 114 | 2.0 | 6.0 | 0.00 | 0.04 | 0.01 | 63 | 1018.7 |
| 20260502011529 | 40 | 88 | 1.0 | 4.0 | 0.00 | 0.04 | 0.01 | 63 | 1018.7 |
| 20260502011008 | 40 | 114 | 2.0 | 4.0 | 0.00 | 0.04 | 0.01 | 63 | 1018.6 |
| 20260502010510 | 40 | 46 | 1.0 | 3.0 | 0.00 | 0.04 | 0.01 | 62 | 1018.5 |
| 20260502010025 | 41 | 88 | 1.0 | 4.0 | 0.00 | 0.04 | 0.01 | 62 | 1018.5 |
| 20260502005511 | 41 | 109 | 1.0 | 4.0 | 0.00 | 0.04 | 0.01 | 61 | 1018.4 |
| 20260502005010 | 41 | 121 | 1.0 | 4.0 | 0.00 | 0.04 | 0.01 | 61 | 1018.4 |
| 20260502004527 | 41 | 101 | 2.0 | 4.0 | 0.00 | 0.04 | 0.01 | 60 | 1018.4 |
| 20260502004011 | 42 | 89 | 2.0 | 4.0 | 0.00 | 0.04 | 0.01 | 60 | 1018.4 |
| 20260502003511 | 42 | 103 | 2.0 | 3.0 | 0.00 | 0.04 | 0.01 | 60 | 1018.3 |
| 20260502003024 | 42 | 82 | 1.0 | 2.0 | 0.00 | 0.04 | 0.01 | 59 | 1018.2 |
| 20260502002509 | 42 | 207 | 0.0 | 2.0 | 0.00 | 0.04 | 0.01 | 59 | 1018.0 |
| 20260502002011 | 42 | 253 | 0.0 | 3.0 | 0.00 | 0.04 | 0.01 | 59 | 1018.1 |
| 20260502001526 | 43 | 253 | 0.0 | 3.0 | 0.00 | 0.04 | 0.01 | 58 | 1018.0 |
| 20260502001010 | 43 | 241 | 2.0 | 4.0 | 0.00 | 0.04 | 0.01 | 59 | 1017.9 |
| 20260502000512 | 43 | 232 | 2.0 | 4.0 | 0.00 | 0.04 | 0.01 | 58 | 1018.0 |
| 20260502000028 | 43 | 217 | 0.0 | 4.0 | 0.00 | 0.04 | 0.01 | 58 | 1017.9 |
| 20260501235511 | 43 | 237 | 0.0 | 4.0 | 0.00 | 0.04 | 0.01 | 58 | 1017.9 |
| 20260501235007 | 43 | 242 | 1.0 | 3.0 | 0.00 | 0.04 | 0.01 | 59 | 1017.9 |
| 20260501234531 | 43 | 148 | 0.0 | 2.0 | 0.00 | 0.04 | 0.01 | 59 | 1018.0 |
| 20260501234007 | 43 | 148 | 1.0 | 2.0 | 0.00 | 0.04 | 0.01 | 57 | 1018.0 |
| 20260501233511 | 43 | 251 | 0.0 | 3.0 | 0.00 | 0.04 | 0.01 | 58 | 1018.0 |
| 20260501233028 | 43 | 340 | 1.0 | 3.0 | 0.00 | 0.04 | 0.01 | 58 | 1018.0 |
| 20260501232509 | 43 | 312 | 1.0 | 3.0 | 0.00 | 0.04 | 0.01 | 59 | 1018.0 |
| 20260501232015 | 42 | 334 | 0.0 | 3.0 | 0.00 | 0.04 | 0.01 | 59 | 1018.2 |
| 20260501231538 | 43 | 51 | 0.0 | 3.0 | 0.00 | 0.04 | 0.01 | 59 | 1018.3 |
| 20260501231010 | 43 | 53 | 1.0 | 2.0 | 0.00 | 0.04 | 0.01 | 57 | 1018.3 |